Temp
70 71 67 66 57 51 45 49 52 55 55 59 61 63 59 57 57 51 65 69 71 71 72 73 74 75 75 75 75 75 76 76 76 76 76 76 76 76 76 76 76 76 76 76 76 76 75 75 75
67 74 66 58 50 44 46 49 54 56 60 61 64 59 59 54 63 60 63 70 73 72 72 72 73 75 75 75 75 75 75 76 76 76 76 76 76 76 76 76 76 75 75 75 76 75 74 74 74
71 70 63 54 46 45 47 51 56 57 60 59 59 62 59 57 62 63 68 72 73 72 72 72 73 74 75 75 75 75 75 75 76 76 76 76 76 76 75 75 75 75 75 75 75 74 74 74 74
68 66 60 52 47 50 54 55 57 59 58 63 60 57 59 64 67 69 72 73 72 71 73 71 73 74 75 74 75 75 75 75 75 75 75 76 75 75 74 74 74 74 74 74 74 73 73 75 74
63 59 51 48 49 54 52 56 57 57 58 59 60 55 55 65 69 72 72 73 70 71 71 71 72 74 74 74 75 75 75 75 75 75 75 75 74 74 73 73 73 73 73 73 73 73 73 73 73
60 57 48 44 47 54 56 59 60 55 56 59 57 55 57 65 68 69 73 70 72 69 70 71 69 71 72 73 74 74 74 74 74 74 74 74 74 73 73 73 73 72 72 72 72 72 72 72 72
57 52 47 46 50 51 59 61 60 58 55 57 62 53 55 60 67 69 71 70 70 70 69 69 69 70 68 70 71 72 73 73 73 73 73 72 72 72 72 71 72 72 71 72 71 71 71 71 70
58 55 47 45 51 52 58 59 61 60 59 61 63 53 52 62 67 68 71 69 68 69 68 67 68 69 69 69 67 68 69 70 71 70 68 67 68 68 69 68 70 71 71 71 70 70 70 70 69
58 51 46 49 52 54 58 58 59 59 60 58 59 58 61 67 67 64 63 65 68 69 67 67 67 67 67 67 66 66 67 67 67 66 64 63 62 63 64 65 68 69 69 69 69 68 67 66 65
55 48 52 55 55 55 59 58 61 57 56 54 54 58 60 64 63 63 60 62 62 64 65 67 67 67 67 69 66 66 66 65 64 63 62 62 61 61 63 61 65 66 67 68 69 66 63 60 57
53 52 56 57 58 60 60 56 59 58 52 59 59 59 59 60 61 64 60 63 63 64 65 66 67 67 67 67 66 66 66 64 63 62 61 61 60 59 58 57 58 58 60 59 59 58 57 56 56
54 57 58 59 58 58 58 57 55 58 60 63 63 62 60 61 62 64 62 61 61 62 65 67 67 66 66 67 66 66 67 66 63 62 62 60 57 57 56 55 55 55 55 54 54 54 55 55 55
53 55 58 58 57 56 57 54 55 56 62 59 61 61 60 63 63 64 65 61 62 62 63 65 67 68 68 66 66 66 67 66 64 63 65 61 58 57 56 55 54 54 53 53 53 53 53 53 54
57 57 56 56 55 55 54 51 53 59 59 58 58 58 59 60 60 59 59 62 62 64 64 64 65 66 68 67 68 69 68 66 65 65 65 64 63 62 60 57 58 56 54 53 54 54 54 52 52
56 51 52 53 54 53 53 51 53 56 58 57 57 55 56 59 58 60 64 64 64 65 66 64 65 65 66 67 67 69 68 67 66 65 65 66 65 62 60 59 59 59 58 57 54 56 55 53 51
50 48 43 51 53 53 52 48 55 57 54 57 55 53 55 58 59 61 62 64 63 65 64 66 67 65 66 66 65 66 67 67 66 66 65 67 66 63 60 60 59 59 57 58 56 52 52 52 52
45 40 41 48 55 51 48 48 54 54 55 53 55 55 56 56 58 58 62 63 64 65 65 65 65 65 66 65 66 64 64 67 66 66 66 66 66 65 62 60 59 58 57 56 55 53 53 50 49
41 39 43 42 50 48 44 48 53 56 53 55 54 55 55 56 60 63 62 63 64 65 65 66 65 66 67 67 63 61 63 65 66 64 65 66 66 65 63 61 58 58 57 54 54 53 51 51 49
47 44 42 44 49 47 47 46 51 55 52 52 53 53 53 56 62 60 61 63 62 61 63 64 63 65 65 65 62 62 63 63 62 64 63 64 65 65 63 60 58 58 56 55 54 51 50 44 48
45 42 40 45 49 46 45 48 51 53 53 54 55 54 54 55 57 61 61 57 58 62 62 62 63 64 64 66 65 65 62 58 62 59 60 63 64 65 63 61 57 57 56 54 52 52 48 47 49
44 43 41 44 45 44 40 43 46 52 51 54 55 56 56 56 57 58 59 58 55 57 60 61 62 63 63 65 61 54 54 53 54 55 58 58 61 64 63 62 58 57 56 53 52 52 51 45 45
42 48 47 45 41 36 41 33 39 49 52 53 57 54 54 55 56 57 57 56 55 58 58 60 60 61 62 62 61 60 60 59 60 62 56 56 56 61 62 61 59 57 56 54 53 53 53 51 46
46 47 46 43 38 35 35 34 40 42 48 54 55 55 54 53 54 56 56 57 57 55 54 54 56 58 60 59 60 59 58 56 51 51 53 53 53 55 60 60 58 56 56 55 53 52 51 51 50
50 46 43 38 36 29 37 37 36 43 49 50 51 52 54 53 53 55 54 56 55 51 50 51 53 53 54 55 55 56 56 51 49 48 49 49 51 52 53 56 58 57 56 55 53 52 51 51 52
44 42 31 28 26 28 34 33 39 48 51 52 54 52 52 54 53 53 54 54 53 51 50 50 51 52 52 52 52 53 54 52 52 50 51 47 50 49 51 54 55 56 56 56 54 52 50 50 49
42 42 31 25 24 29 34 32 44 50 53 53 53 51 52 52 51 51 52 52 51 51 50 50 50 51 50 50 50 50 51 53 53 51 52 52 52 53 52 51 53 55 55 55 54 52 51 51 50
42 37 44 33 17 24 32 39 49 50 50 51 51 51 51 50 50 50 50 50 50 50 50 50 50 50 50 50 49 49 49 50 52 50 51 53 51 51 48 50 50 51 52 54 54 52 50 50 49
44 47 36 32 22 20 29 32 39 48 53 50 50 51 51 51 52 52 51 51 50 49 50 49 49 50 50 49 49 49 49 49 51 49 49 50 49 48 47 47 48 50 51 52 52 51 50 48 48
41 39 39 40 33 26 22 33 44 47 49 48 49 50 49 49 52 52 52 51 51 50 49 49 49 49 49 48 48 47 48 48 48 48 49 48 47 47 47 47 49 49 49 49 49 50 49 46 46
39 40 40 33 30 29 30 35 48 49 49 50 51 53 51 51 52 53 52 52 51 50 49 49 49 48 49 49 48 47 47 47 46 47 48 46 47 45 47 45 47 48 48 47 47 47 46 44 44
MSLP
1013.04 1013.05 1013.51 1014.13 1015.95 1017.04 1017.28 1016.87 1016.34 1016.08 1015.89 1015.74 1015.74 1016.01 1017.08 1017.67 1018.19 1019.03 1018.44 1018.80 1018.99 1019.57 1020.04 1020.33 1020.41 1020.64 1020.78 1020.98 1021.00 1021.09 1021.02 1021.04 1021.25 1021.45 1021.61 1021.66 1021.73 1021.76 1021.82 1021.94 1021.97 1022.04 1022.18 1022.32 1022.25 1022.29 1022.45 1022.35 1022.38
1013.21 1013.27 1013.90 1015.17 1016.58 1017.54 1017.68 1016.80 1016.52 1016.02 1015.83 1015.86 1016.00 1016.58 1017.05 1017.86 1017.94 1018.57 1018.85 1018.85 1018.91 1019.40 1020.02 1020.21 1020.50 1020.66 1020.97 1021.14 1021.06 1021.16 1021.23 1021.38 1021.61 1021.78 1021.82 1021.96 1022.03 1022.04 1022.11 1022.32 1022.26 1022.45 1022.57 1022.65 1022.64 1022.71 1022.87 1022.91 1022.85
1013.18 1013.71 1014.72 1015.86 1017.05 1017.40 1017.15 1016.72 1016.32 1016.18 1015.95 1015.85 1016.38 1016.74 1017.24 1017.75 1018.02 1018.21 1018.14 1018.50 1018.99 1019.44 1019.86 1020.21 1020.41 1020.62 1020.91 1021.03 1021.06 1021.33 1021.49 1021.71 1021.84 1022.08 1022.07 1022.22 1022.33 1022.37 1022.44 1022.64 1022.72 1022.88 1023.07 1023.11 1023.04 1023.27 1023.29 1023.21 1023.26
1013.73 1014.49 1015.75 1016.25 1016.68 1016.27 1016.28 1016.34 1016.18 1016.16 1016.02 1015.93 1016.47 1017.39 1017.45 1017.42 1017.54 1017.65 1017.95 1018.42 1018.97 1019.44 1019.76 1020.21 1020.35 1020.65 1020.99 1021.03 1021.28 1021.49 1021.72 1021.95 1022.16 1022.31 1022.39 1022.48 1022.68 1022.73 1022.86 1022.96 1023.18 1023.29 1023.40 1023.44 1023.48 1023.74 1023.53 1023.42 1023.63
1014.18 1015.21 1016.25 1016.59 1016.29 1016.00 1015.89 1016.03 1016.08 1016.09 1016.02 1016.22 1016.40 1017.50 1017.77 1017.47 1017.36 1017.66 1018.13 1018.44 1019.02 1019.44 1019.76 1020.09 1020.38 1020.77 1021.04 1021.14 1021.49 1021.73 1021.94 1022.22 1022.41 1022.56 1022.64 1022.74 1022.96 1023.04 1023.25 1023.41 1023.54 1023.71 1023.84 1023.87 1023.99 1023.98 1023.90 1023.82 1024.00
1015.05 1015.75 1016.67 1016.71 1016.20 1015.96 1015.69 1015.77 1015.94 1016.22 1016.32 1016.36 1016.92 1017.64 1017.97 1017.59 1017.77 1018.02 1018.23 1018.66 1018.84 1019.39 1019.76 1020.10 1020.56 1020.69 1020.99 1021.32 1021.70 1021.94 1022.22 1022.48 1022.65 1022.85 1023.00 1022.96 1023.18 1023.41 1023.63 1023.78 1024.02 1024.16 1024.30 1024.34 1024.41 1024.32 1024.32 1024.40 1024.44
1014.98 1016.28 1016.60 1016.34 1016.13 1015.76 1015.32 1015.39 1015.54 1016.04 1016.44 1016.41 1016.69 1018.10 1018.33 1018.07 1017.87 1018.02 1018.36 1018.64 1019.12 1019.48 1019.94 1020.31 1020.53 1020.86 1021.12 1021.53 1021.87 1022.09 1022.41 1022.71 1022.87 1023.04 1023.18 1023.26 1023.37 1023.72 1024.02 1024.16 1024.33 1024.52 1024.69 1024.67 1024.84 1024.73 1024.80 1024.86 1024.95
1014.69 1015.87 1016.46 1016.10 1015.89 1015.45 1014.92 1015.12 1015.21 1015.56 1016.02 1015.99 1016.33 1017.58 1018.46 1017.92 1017.95 1018.21 1018.54 1018.97 1019.34 1019.55 1019.87 1020.33 1020.61 1020.96 1021.32 1021.72 1021.99 1022.27 1022.51 1022.86 1023.05 1023.17 1023.25 1023.54 1023.63 1024.07 1024.30 1024.51 1024.61 1024.80 1024.99 1025.08 1025.24 1025.19 1025.24 1025.31 1025.46
1014.56 1015.72 1016.29 1015.73 1015.47 1015.10 1014.87 1015.05 1015.31 1015.39 1015.73 1016.11 1016.42 1016.72 1016.57 1017.04 1017.88 1018.60 1018.94 1019.31 1019.47 1019.71 1019.90 1020.21 1020.60 1021.03 1021.39 1021.75 1022.09 1022.33 1022.62 1022.94 1023.16 1023.36 1023.52 1023.85 1023.98 1024.35 1024.59 1024.78 1024.84 1024.95 1025.22 1025.43 1025.65 1025.74 1025.79 1025.85 1026.00
1014.80 1015.84 1015.73 1015.17 1014.97 1014.89 1014.89 1015.01 1015.23 1015.64 1015.96 1016.41 1016.74 1016.85 1016.89 1017.35 1017.88 1018.43 1019.05 1019.33 1019.43 1019.61 1019.97 1019.94 1020.39 1020.81 1021.23 1021.55 1022.06 1022.37 1022.77 1023.06 1023.39 1023.54 1023.74 1024.09 1024.27 1024.47 1024.76 1024.97 1025.08 1025.25 1025.40 1025.51 1025.71 1026.00 1026.22 1026.36 1026.53
1014.89 1015.27 1015.28 1015.12 1015.02 1014.70 1014.90 1015.23 1015.15 1015.67 1016.33 1016.19 1016.59 1017.12 1017.55 1017.84 1018.23 1018.36 1018.68 1018.87 1019.06 1019.31 1019.76 1020.10 1020.22 1020.60 1021.04 1021.43 1021.92 1022.32 1022.76 1023.10 1023.54 1023.73 1024.03 1024.33 1024.58 1024.86 1025.13 1025.40 1025.57 1025.69 1025.75 1025.90 1026.14 1026.28 1026.39 1026.61 1026.90
1014.78 1014.85 1014.97 1015.07 1015.20 1015.04 1015.11 1015.20 1015.47 1015.60 1015.41 1015.33 1015.85 1016.55 1017.42 1017.99 1018.07 1018.07 1018.36 1018.69 1019.03 1019.28 1019.38 1019.65 1019.84 1020.37 1020.75 1021.17 1021.69 1022.12 1022.54 1023.06 1023.52 1023.83 1024.03 1024.36 1024.77 1025.17 1025.52 1025.84 1026.01 1026.06 1026.14 1026.29 1026.48 1026.68 1026.76 1026.86 1026.97
1014.75 1014.96 1014.98 1015.14 1015.25 1015.32 1015.34 1015.35 1015.51 1015.46 1015.20 1015.54 1016.06 1016.94 1017.33 1017.62 1017.83 1017.83 1017.87 1018.30 1018.47 1018.86 1018.96 1019.12 1019.37 1019.69 1020.32 1020.83 1021.34 1021.77 1022.15 1022.59 1023.11 1023.63 1023.94 1024.28 1024.74 1025.13 1025.49 1025.83 1026.12 1026.28 1026.39 1026.54 1026.81 1026.99 1027.11 1027.27 1027.42
1014.85 1015.12 1015.09 1015.42 1015.48 1015.45 1015.65 1015.82 1015.69 1015.08 1015.06 1015.87 1016.42 1016.86 1017.30 1017.46 1017.40 1017.85 1018.14 1018.05 1018.02 1018.19 1018.32 1018.62 1019.00 1019.23 1019.76 1020.28 1020.68 1021.08 1021.59 1022.05 1022.56 1023.01 1023.27 1023.65 1024.09 1024.66 1025.19 1025.62 1025.91 1026.13 1026.31 1026.53 1026.67 1026.91 1027.23 1027.49 1027.61
1015.23 1015.47 1015.61 1015.73 1015.84 1015.88 1015.96 1016.19 1015.77 1015.46 1015.52 1016.07 1016.69 1016.99 1017.24 1017.28 1017.51 1017.26 1016.98 1017.27 1017.34 1017.31 1017.80 1018.12 1018.52 1018.94 1019.30 1019.83 1020.21 1020.33 1020.88 1021.39 1021.88 1022.33 1022.79 1023.11 1023.44 1024.03 1024.57 1025.13 1025.41 1025.70 1026.00 1026.20 1026.67 1026.89 1027.10 1027.47 1027.88
1015.87 1016.19 1016.50 1016.02 1016.22 1016.18 1016.55 1016.35 1015.79 1015.48 1015.73 1016.10 1016.63 1017.14 1017.37 1017.10 1016.78 1016.79 1016.69 1016.72 1016.88 1017.16 1017.37 1017.66 1018.09 1018.50 1018.81 1019.19 1019.62 1019.89 1020.15 1020.73 1021.25 1021.67 1022.05 1022.39 1022.82 1023.34 1024.06 1024.52 1024.92 1025.22 1025.78 1026.02 1026.38 1026.76 1027.39 1027.50 1027.79
1017.01 1016.88 1016.80 1016.48 1016.42 1016.57 1016.93 1016.67 1015.88 1015.81 1015.95 1016.39 1016.60 1016.63 1016.74 1016.60 1016.38 1016.35 1016.13 1016.07 1016.21 1016.35 1016.73 1017.14 1017.53 1017.84 1018.31 1018.69 1019.05 1019.53 1019.72 1020.06 1020.55 1020.99 1021.27 1021.65 1022.09 1022.58 1023.19 1023.72 1024.19 1024.83 1025.26 1025.78 1026.28 1026.73 1026.89 1027.52 1028.10
1017.21 1017.01 1016.58 1016.70 1016.65 1016.82 1017.24 1016.90 1016.19 1015.93 1016.24 1016.18 1016.09 1016.18 1016.12 1015.86 1015.25 1014.87 1015.13 1015.39 1015.47 1015.66 1016.02 1016.38 1016.79 1017.25 1017.76 1018.12 1018.85 1019.20 1019.42 1019.56 1019.90 1020.24 1020.46 1020.94 1021.38 1021.87 1022.46 1023.16 1023.76 1024.23 1024.84 1025.44 1025.88 1026.36 1026.86 1027.36 1027.99
1016.47 1016.57 1016.62 1016.69 1016.75 1017.15 1017.11 1017.23 1016.68 1015.80 1015.96 1015.75 1015.60 1015.36 1015.40 1014.94 1013.82 1014.02 1014.08 1014.49 1014.98 1015.31 1015.68 1015.88 1016.28 1016.49 1017.24 1017.83 1018.45 1018.94 1019.03 1019.37 1019.64 1019.64 1020.07 1020.42 1020.70 1021.23 1021.79 1022.38 1023.05 1023.62 1024.24 1024.51 1025.04 1026.24 1027.00 1027.81 1027.99
1016.47 1016.77 1016.88 1017.09 1017.03 1017.58 1017.46 1017.09 1016.53 1015.79 1014.97 1014.79 1014.56 1014.49 1014.25 1014.20 1013.59 1013.45 1013.42 1013.77 1014.16 1014.33 1014.68 1015.23 1015.51 1016.05 1016.46 1017.02 1017.51 1018.20 1018.68 1018.97 1019.15 1019.42 1019.71 1019.80 1020.17 1020.53 1021.03 1021.52 1022.39 1022.92 1023.62 1024.37 1025.19 1025.34 1026.46 1027.06 1027.40
1016.77 1016.76 1017.21 1017.47 1017.68 1017.98 1018.31 1017.49 1016.52 1015.07 1014.54 1013.90 1013.64 1013.28 1013.30 1013.33 1013.12 1013.16 1013.22 1013.18 1013.45 1013.87 1014.01 1014.40 1014.74 1015.24 1015.83 1016.34 1017.20 1017.98 1018.63 1019.05 1019.21 1019.32 1019.40 1019.59 1019.73 1019.96 1020.43 1020.99 1021.78 1022.45 1022.57 1023.28 1024.01 1024.56 1025.06 1026.02 1026.80
1017.04 1016.78 1017.43 1017.93 1018.68 1019.20 1019.18 1018.66 1016.96 1015.62 1014.65 1013.80 1012.84 1012.89 1012.68 1012.84 1012.70 1012.50 1012.69 1012.90 1013.26 1013.17 1013.45 1013.90 1014.44 1014.91 1015.44 1016.04 1016.65 1017.19 1017.76 1018.28 1018.30 1018.60 1019.00 1019.31 1019.56 1019.70 1019.88 1020.26 1020.89 1021.41 1022.03 1022.70 1023.03 1023.49 1024.27 1024.69 1025.61
1017.17 1017.34 1017.99 1018.67 1019.52 1020.08 1020.16 1019.94 1016.78 1016.01 1014.92 1013.41 1012.62 1012.50 1012.28 1012.36 1012.49 1012.54 1012.50 1012.47 1012.56 1012.99 1013.41 1013.75 1014.16 1014.73 1015.23 1015.76 1016.26 1016.88 1017.41 1017.60 1018.03 1018.38 1018.75 1019.04 1019.30 1019.52 1019.56 1019.83 1020.21 1020.65 1020.79 1021.28 1022.09 1022.86 1023.47 1024.04 1024.28
1017.51 1018.17 1019.16 1020.15 1021.01 1021.08 1020.07 1019.62 1017.60 1015.90 1014.23 1013.21 1012.66 1012.43 1012.48 1012.47 1012.56 1012.53 1012.65 1012.80 1012.99 1013.17 1013.61 1014.14 1014.64 1015.06 1015.43 1015.85 1016.22 1016.61 1017.11 1017.55 1018.02 1018.34 1018.59 1018.74 1018.91 1019.12 1019.20 1019.24 1019.29 1019.60 1019.95 1020.26 1020.89 1021.59 1022.10 1022.31 1022.99
1017.95 1019.03 1020.62 1021.75 1022.13 1021.54 1020.48 1019.93 1017.41 1015.06 1013.62 1013.28 1013.01 1012.91 1013.00 1013.08 1013.37 1013.55 1013.62 1013.63 1013.74 1013.98 1014.20 1014.50 1014.89 1015.32 1015.59 1016.02 1016.32 1016.42 1016.61 1017.05 1017.42 1017.71 1017.98 1018.40 1018.53 1018.51 1018.54 1018.65 1018.76 1018.82 1019.06 1019.34 1019.69 1020.45 1020.91 1021.21 1021.68
1018.01 1018.77 1020.19 1021.38 1022.35 1021.93 1020.69 1018.80 1015.62 1014.31 1013.66 1013.45 1013.35 1013.47 1013.60 1013.79 1013.92 1014.04 1014.15 1014.07 1013.99 1014.14 1014.44 1014.78 1015.04 1015.44 1015.72 1016.01 1016.21 1016.33 1016.51 1016.81 1016.89 1017.02 1017.20 1017.41 1017.49 1017.52 1017.60 1018.08 1018.29 1018.49 1018.82 1019.07 1019.05 1019.42 1019.92 1020.31 1020.51
1018.26 1018.89 1019.32 1020.92 1022.96 1022.32 1020.09 1018.08 1015.60 1013.89 1013.50 1013.86 1014.31 1014.30 1014.44 1014.54 1014.53 1014.39 1014.62 1014.55 1014.68 1014.86 1014.74 1014.94 1015.23 1015.34 1015.49 1015.62 1015.88 1016.04 1016.14 1016.33 1016.42 1016.47 1016.55 1016.70 1016.83 1017.08 1017.38 1017.51 1017.87 1018.02 1018.15 1018.31 1018.60 1018.90 1018.95 1019.16 1019.68
1017.26 1017.94 1019.41 1020.81 1022.17 1022.08 1019.83 1018.25 1016.17 1014.76 1014.02 1014.43 1014.83 1014.86 1014.93 1014.83 1014.58 1014.81 1015.02 1014.95 1014.95 1014.87 1014.68 1014.72 1015.05 1015.19 1015.31 1015.39 1015.38 1015.60 1015.60 1015.53 1015.63 1015.87 1015.91 1015.94 1016.02 1016.38 1016.66 1016.86 1017.13 1017.38 1017.54 1017.68 1017.96 1018.12 1018.27 1018.44 1018.60
1017.84 1017.98 1018.65 1019.68 1020.59 1020.81 1019.84 1017.56 1015.26 1014.76 1014.68 1015.14 1015.27 1015.06 1015.31 1015.30 1014.94 1015.02 1015.04 1015.19 1015.33 1015.21 1015.20 1015.18 1015.12 1015.06 1015.03 1015.12 1015.29 1015.50 1015.29 1015.25 1015.42 1015.53 1015.52 1015.59 1015.81 1015.96 1016.23 1016.42 1016.65 1016.78 1016.87 1017.04 1017.40 1017.55 1017.74 1017.88 1018.00
1017.36 1017.53 1017.91 1019.20 1020.43 1020.20 1019.11 1016.69 1015.17 1015.03 1015.28 1015.14 1015.34 1015.54 1015.36 1015.11 1015.19 1015.49 1015.45 1015.59 1015.76 1015.71 1015.78 1015.56 1015.22 1015.26 1014.86 1014.66 1014.89 1014.95 1014.85 1014.90 1015.08 1014.94 1014.77 1014.96 1015.11 1015.33 1015.54 1015.75 1016.06 1016.20 1016.34 1016.46 1016.51 1016.72 1016.85 1017.12 1017.33
Wind_Speed
5 6 2 6 5 6 1 2 2 3 2 0 1 8 8 4 2 3 3 9 11 12 9 7 11 11 14 13 12 13 14 16 15 14 13 13 14 17 18 18 16 18 17 16 17 19 16 15 17
4 3 5 3 6 4 4 2 5 3 5 6 8 3 5 2 2 4 8 7 13 11 8 6 10 13 14 13 13 13 14 15 14 14 14 13 14 17 18 17 16 17 16 16 17 18 17 16 19
3 2 5 5 4 5 5 4 7 2 4 2 4 5 4 3 3 9 4 12 11 10 8 7 11 14 14 13 14 13 13 13 14 13 14 13 15 17 17 17 17 16 16 16 17 16 14 14 18
3 5 5 6 2 1 7 7 6 7 1 4 5 6 3 3 9 8 15 14 11 10 8 9 12 14 14 14 14 14 13 13 13 13 14 14 15 16 16 16 15 15 15 15 16 13 14 15 18
4 3 5 3 2 2 3 4 6 5 5 4 4 4 2 0 4 14 14 12 12 9 8 9 12 14 14 14 14 12 13 13 13 13 13 14 15 15 15 15 15 15 14 15 15 14 15 15 19
5 4 5 2 1 1 3 6 6 3 2 4 6 5 4 1 10 9 13 9 10 10 8 8 10 12 13 13 13 12 12 12 12 13 13 14 14 14 14 14 14 14 14 15 15 15 17 17 17
7 5 4 4 4 1 4 7 8 6 3 3 10 6 1 1 6 8 11 10 10 10 9 6 7 9 11 11 11 11 12 12 12 12 12 11 13 12 12 13 13 13 14 15 15 15 17 17 17
6 5 3 1 4 4 3 3 6 6 6 2 7 6 5 7 8 8 8 9 10 9 9 8 6 7 7 7 11 11 11 11 11 11 11 10 12 11 10 9 12 13 13 14 14 14 16 16 16
4 5 1 1 5 4 3 4 1 2 5 2 2 7 5 13 9 8 4 5 8 8 10 9 8 7 7 6 7 10 11 11 11 10 11 8 5 6 7 7 11 14 13 14 13 14 13 13 14
6 5 7 1 4 5 4 3 7 4 3 1 2 4 5 11 8 11 8 9 7 10 9 11 10 9 8 7 7 6 6 5 5 5 6 4 5 5 5 6 10 11 12 14 15 13 12 8 4
3 6 5 1 1 4 6 3 4 7 4 7 9 7 7 6 9 12 8 10 12 11 10 10 10 10 10 7 6 4 4 4 3 6 5 5 4 4 3 3 3 4 5 3 6 6 4 6 4
4 3 3 3 0 2 5 3 3 7 7 5 10 12 11 12 14 15 12 10 9 8 12 13 12 10 10 7 7 7 7 5 4 5 6 5 3 4 4 3 3 3 2 4 4 3 5 6 6
3 2 3 3 2 3 2 2 3 6 7 1 7 9 14 15 14 11 10 6 8 10 9 12 12 13 11 10 7 8 9 9 7 7 8 6 4 5 4 4 4 3 3 4 4 4 4 5 5
3 3 4 2 2 0 1 1 1 6 5 6 9 13 11 13 15 6 6 10 11 12 13 11 11 10 11 10 12 9 8 9 8 8 9 11 8 7 7 6 5 4 4 4 4 5 4 4 4
3 3 2 2 2 1 1 3 8 5 5 4 9 9 9 13 8 15 17 15 14 11 11 13 12 10 11 12 9 9 9 9 9 9 10 12 11 10 9 7 7 6 5 6 4 4 4 5 4
4 6 2 3 4 2 3 8 5 6 5 9 6 7 9 13 14 13 12 13 10 10 13 13 10 11 12 12 8 6 8 8 8 8 9 13 13 13 10 9 8 7 5 5 5 6 3 4 5
6 3 4 4 7 2 3 6 5 1 4 4 8 9 9 11 11 12 13 14 14 15 14 14 13 15 14 10 9 6 7 8 8 9 9 13 14 13 11 9 9 9 7 6 5 3 5 6 4
6 3 3 4 4 1 2 9 9 10 4 10 10 10 10 10 15 14 15 15 14 15 14 15 13 14 15 10 6 4 5 7 7 8 9 13 12 14 12 9 8 10 8 7 6 8 3 4 6
6 4 3 1 0 3 7 7 13 10 6 11 11 10 10 13 11 9 10 13 12 10 12 15 15 15 11 10 9 8 11 7 6 8 9 11 12 14 13 9 10 10 10 11 11 5 7 2 4
2 3 2 1 1 1 4 12 11 12 9 8 10 10 12 8 8 10 9 9 13 16 17 14 16 14 14 11 9 8 6 4 6 5 6 10 11 13 13 12 11 12 9 10 9 11 5 3 9
3 5 4 4 1 1 3 10 7 5 4 5 8 10 7 11 11 9 9 10 9 11 14 15 17 16 14 14 5 3 3 2 2 3 5 6 9 12 13 12 11 12 11 11 14 13 15 7 9
3 3 3 4 3 4 2 8 6 7 10 7 11 6 9 9 7 7 7 6 9 13 9 9 10 13 13 12 11 11 10 11 9 8 3 5 7 8 11 12 12 13 10 11 13 13 12 11 10
7 3 5 3 3 3 4 1 9 4 7 12 10 7 4 3 4 6 7 7 6 5 7 6 7 9 9 10 10 9 9 5 2 3 5 6 5 7 8 10 12 12 11 12 13 14 14 11 9
7 6 8 5 3 2 8 7 7 4 6 3 2 3 4 4 4 5 3 6 5 3 3 5 7 4 5 7 7 10 10 7 5 4 5 4 5 6 8 9 11 12 12 12 13 15 17 16 14
4 7 2 4 3 7 2 2 9 10 7 4 6 3 4 6 7 8 9 8 6 7 3 3 5 5 6 7 7 9 11 9 10 8 7 6 6 6 9 12 9 9 11 12 12 14 15 16 14
7 8 8 8 5 4 2 7 7 4 8 4 6 4 7 8 7 7 7 3 3 4 4 2 3 3 6 7 8 7 7 7 8 8 7 8 9 9 8 9 10 12 9 9 11 11 12 14 14
5 4 5 7 3 4 5 7 11 8 3 4 6 7 6 6 6 7 7 6 4 1 1 1 2 4 5 7 7 8 7 8 9 8 8 8 8 6 6 9 10 10 11 13 12 10 12 13 14
4 7 4 3 2 4 5 4 7 6 8 8 9 7 6 6 7 6 4 2 0 1 2 3 4 5 5 6 6 6 8 8 9 6 10 10 7 7 8 9 10 10 12 12 12 11 11 13 11
3 3 2 5 5 6 1 7 8 5 5 10 6 3 3 2 5 5 5 5 5 4 3 4 4 5 6 6 6 7 8 7 6 7 8 8 6 7 10 10 11 12 12 12 12 13 12 13 13
1 5 5 7 5 4 4 7 1 9 7 8 7 6 3 3 1 2 4 5 6 6 6 7 5 7 8 7 6 8 7 6 7 9 9 7 9 7 9 8 11 12 12 11 13 13 11 12 13
Wind_Direction
3 351 90 45 58 65 306 158 201 128 79 311 91 103 130 91 113 193 141 163 140 149 156 162 141 131 117 120 111 103 96 98 98 100 101 99 96 98 96 93 92 92 91 92 99 92 77 94 101
17 1 42 88 86 79 272 265 146 202 173 136 89 86 52 99 102 95 124 180 146 145 152 144 144 136 130 128 117 109 110 111 109 109 105 104 101 102 99 97 95 93 95 99 102 91 77 83 104
50 55 82 88 116 157 176 210 158 164 175 118 91 57 127 145 93 150 175 150 143 144 151 149 145 141 139 130 120 117 113 114 114 116 113 111 107 106 103 99 96 100 99 101 102 85 78 90 98
68 13 32 82 112 275 164 180 183 144 112 68 121 73 37 240 151 179 142 144 144 151 149 155 145 145 144 132 128 125 123 123 122 123 121 118 109 105 106 104 105 105 105 106 99 82 75 111 101
40 62 62 70 360 318 80 195 168 138 152 138 133 169 50 9 119 134 143 148 147 151 147 151 145 148 144 134 134 135 131 130 128 126 124 122 115 112 110 112 112 112 110 111 100 85 85 106 108
37 89 60 87 263 70 153 192 157 101 181 159 81 110 177 134 134 148 143 146 148 142 147 148 153 143 145 143 147 143 135 134 132 130 129 124 117 114 118 118 119 117 115 115 104 92 94 95 99
113 84 185 165 177 258 183 162 133 141 162 219 153 114 279 295 173 141 143 134 142 144 141 142 146 150 145 150 151 143 141 138 137 135 129 120 117 120 121 121 123 121 121 119 106 97 98 98 100
106 96 133 183 172 219 210 128 139 139 204 119 152 168 188 220 182 137 146 144 144 146 145 147 141 146 150 159 154 147 142 144 143 131 122 119 113 116 119 123 129 127 123 118 107 102 101 98 94
108 69 138 221 158 189 190 128 34 114 114 57 13 155 212 160 152 120 118 124 153 156 160 156 154 156 154 153 161 150 149 145 137 132 130 118 118 124 123 137 132 131 128 121 110 99 95 87 81
88 113 204 240 167 181 178 164 153 120 115 342 8 7 99 141 162 160 166 175 173 167 174 166 163 164 159 164 159 153 151 148 149 142 139 129 130 131 131 131 132 134 135 133 118 98 92 77 70
152 164 202 166 225 140 169 182 171 124 228 200 197 176 161 161 178 185 179 187 185 172 168 176 169 169 166 164 163 158 158 148 148 147 143 134 118 112 109 112 113 128 138 126 104 100 97 107 102
119 138 154 168 290 121 165 141 198 175 218 203 200 169 164 175 188 193 194 182 181 180 175 177 175 174 175 167 170 169 171 167 163 172 153 144 134 132 133 131 144 142 141 128 118 115 116 107 106
118 159 106 141 140 124 170 193 222 241 227 44 136 158 180 186 197 207 203 173 171 189 186 181 177 178 181 172 177 178 182 180 175 174 173 153 150 162 155 155 160 167 156 151 138 133 125 112 109
148 122 148 201 196 71 185 238 32 270 241 170 157 184 192 194 201 192 200 198 191 190 193 185 185 179 173 185 184 182 181 180 177 182 185 176 173 174 174 172 178 188 172 161 158 153 140 125 128
114 107 23 237 208 227 110 279 240 260 321 195 191 212 209 219 188 205 208 209 197 202 186 191 188 183 176 189 185 179 178 179 188 187 186 187 181 177 173 179 182 190 189 157 147 137 131 126 116
94 53 87 288 149 203 118 268 278 328 194 237 211 226 227 236 217 218 213 215 207 199 195 192 188 186 187 190 187 188 178 179 186 193 188 193 188 180 176 182 190 182 164 175 168 147 137 141 150
10 174 179 305 202 134 168 250 252 215 45 295 253 237 227 238 238 228 224 213 206 206 202 201 193 194 192 190 189 184 181 190 191 191 193 194 191 186 182 186 187 180 174 166 165 159 159 158 129
192 195 218 220 227 205 229 262 276 280 270 253 260 253 244 238 235 225 216 217 212 207 202 202 199 198 199 193 187 175 192 200 190 195 196 194 195 190 188 187 180 177 178 172 169 175 152 149 142
144 135 147 257 66 178 239 259 278 278 261 267 256 255 246 246 247 226 223 216 210 209 199 199 193 199 187 195 197 207 215 211 212 207 191 195 194 192 191 188 176 183 184 189 174 141 146 92 131
116 128 237 331 278 176 293 275 255 263 254 228 244 253 242 255 264 249 230 206 203 204 203 196 200 191 194 197 202 206 195 210 217 197 197 199 197 196 196 190 185 185 183 173 184 167 163 140 182
170 168 190 196 308 326 326 296 330 288 248 262 259 248 250 238 254 267 255 225 211 207 198 195 195 192 193 196 165 90 75 65 163 208 206 200 198 198 200 195 187 193 185 188 181 187 177 179 203
179 193 172 148 90 231 20 282 300 285 301 302 273 296 275 268 264 255 263 259 218 222 208 198 186 188 192 183 186 195 204 213 221 225 186 188 192 197 197 195 193 189 188 195 193 191 202 180 195
215 160 152 124 120 47 324 67 272 304 286 270 299 298 6 350 277 312 283 261 259 238 211 189 165 180 184 181 187 192 207 207 148 170 188 198 192 197 200 195 191 195 191 196 192 193 199 208 194
143 74 44 51 75 289 220 161 282 219 220 282 8 94 61 53 51 53 75 37 2 47 133 146 161 165 154 170 178 189 201 185 183 197 208 203 204 205 201 198 200 202 201 195 195 198 202 201 215
83 80 338 340 357 229 14 135 245 256 252 266 329 272 14 15 13 350 356 2 4 26 55 117 147 183 180 185 191 199 205 196 209 207 213 190 211 214 212 209 204 205 208 206 197 200 205 207 207
183 153 161 200 201 275 318 239 244 231 285 253 77 47 19 21 10 359 348 2 3 32 57 108 168 214 192 201 219 215 209 211 219 211 210 216 218 220 205 204 213 220 215 223 212 205 209 213 216
188 191 177 102 26 60 235 295 306 334 305 59 61 62 27 7 10 12 12 32 59 30 68 153 196 234 232 224 220 223 215 212 221 219 218 227 227 223 196 206 211 217 221 226 230 225 217 210 215
152 168 84 4 158 265 273 251 226 271 270 49 53 48 20 360 29 37 19 14 209 227 224 220 222 237 251 247 235 231 225 220 223 209 222 220 212 203 197 203 208 213 222 226 223 229 221 215 216
142 183 113 127 150 177 244 261 221 249 110 117 100 36 24 41 42 11 9 344 324 310 289 272 248 246 258 249 246 247 247 241 235 233 239 229 220 208 214 211 214 219 223 218 222 229 230 219 219
184 195 152 143 229 243 157 252 38 125 116 113 87 47 322 328 63 318 308 323 318 309 294 263 265 260 248 242 239 244 255 244 239 239 236 209 220 209 217 207 216 224 223 215 215 221 217 215 218